sat.trackr.live / text

‹ back to catalog

STARLINK-35251

NORAD 65604 · 2025-207N

PAYLOAD ACTIVE UNKNOWN

§ Identity

Operator
Country
US
Launch date
2025-09-13
Launch site
AFWTR
Launch vehicle
Mass (kg)
RCS (m²)

Purposes: comms

External: N2YO · Heavens-Above · Gunter

§ Orbital elements

Epoch: 2026-09-20T22:00:03.000096Z

Period
93.91 min
Inclination
97.2861°
Eccentricity
0.0001700
Mean motion
15.33410106 rev/d
Perigee alt
464.5 km
Apogee alt
466.8 km
Semi-major
6,843.8 km
B*
1.0195e-4
RAAN
326.3588°
Arg perigee
91.6302°
Mean anomaly
23.9509°
Rev number
574

§ Raw data

STARLINK-352511 65604U 25207N   26263.91670139  .00003214  00000+0  10195-3 0  99902 65604  97.2861 326.3588 0001700  91.6302  23.9509 15.33410106  5748

JSON: /api/v1/satellites/65604 · /tle

For live sub-satellite position, see the globe view (requires WebGL).

§ Visibility from observer

Set your observer location to see the next 7 days of passes ≥ 10°. The values pass through the URL so the page stays shareable.

No JS? Fill the form by hand. The geolocation button needs JavaScript.